Flag for Germany Weather past 2 weeks in Strausberg, Brandenburg, Germany

Now
41 °F

Partly sunny.


Feels Like: 33 °F
Forecast: 35 / 45 °F
Wind: 16 mph from Northwest

Location: Berlin-Schoenefeld

Current Time: Mar 5, 2015 at 12:32:01 PM

Latest Report: Mar 5, 2015 at 11:50 AM


Visibility: N/A

Pressure: 30.48 "Hg

Humidity: 76%

Dew point: 34 °F

Location of StrausbergLocation

Historic Weather in Strausberg — Graph

°F

Strausberg temperature yesterday

Maximum temperature yesterday: 43 °F (at 10:50 AM)
Minimum temperature yesterday: 32 °F (at 6:50 AM)
Average temperature yesterday: 38 °F

Past Weeks' High & Low Weather Summary

 TemperatureHumidityPressure
High52 °F (Feb 21, 12:20 PM)100% (Feb 19, 5:50 AM)30.72 "Hg (Feb 19, 5:50 AM)
Low25 °F (Feb 20, 4:20 AM)43% (Feb 27, 1:50 PM)29.39 "Hg (Feb 21, 12:50 PM)
Average38 °F80%29.91 "Hg
* Reported Feb 18 11:20 AM — Mar 5 11:20 AM, Strausberg, Weather by CustomWeather, © 2015

Note: Actual official high and low records may vary slightly from our data, if they occured in-between our weather recording intervals... More about our weather records

Advertising

Strausberg weather history for previous 24 hours

 ConditionsComfort  
Time TempWeatherWind HumidityBarometerVisibility
11:20 AM
Thu, Mar 5
39 °FScattered clouds.13 mph81%30.48 "HgN/A
10:50 AM39 °FPartly sunny.16 mph75%30.48 "HgN/A
10:20 AM39 °FPartly sunny.14 mph81%30.48 "HgN/A
9:50 AM39 °FPartly sunny.13 mph87%30.45 "HgN/A
9:20 AM37 °FScattered clouds.13 mph87%30.45 "HgN/A
8:50 AM37 °FPartly sunny.15 mph81%30.45 "HgN/A
8:20 AM37 °FPartly sunny.16 mph87%30.42 "HgN/A
7:50 AM37 °FPartly sunny.12 mph87%30.42 "HgN/A
7:20 AM37 °FPartly sunny.13 mph87%30.39 "HgN/A
6:50 AM37 °FBroken clouds.10 mph93%30.39 "HgN/A
6:20 AM37 °FPassing clouds.12 mph93%30.36 "HgN/A
5:20 AM37 °FPassing clouds.10 mph93%30.33 "HgN/A
4:20 AM37 °FPassing clouds.8 mph100%30.30 "HgN/A
3:50 AM37 °FPassing clouds.6 mph100%30.30 "HgN/A
2:50 AM37 °FLight rain. Passing clouds.7 mph93%30.27 "HgN/A
2:20 AM37 °FLight rain. Passing clouds.10 mph93%30.27 "HgN/A
1:50 AM37 °FPartly cloudy.8 mph93%30.24 "HgN/A
1:20 AM37 °FLight rain. Passing clouds.8 mph93%30.24 "HgN/A
12:50 AM37 °FPartly cloudy.9 mph93%30.24 "HgN/A
12:20 AM37 °FPassing clouds.9 mph93%30.21 "HgN/A
11:50 PM
Wed, Mar 4
36 °FPartly cloudy.9 mph93%30.21 "HgN/A
11:20 PM37 °FLight rain. Passing clouds.10 mph87%30.21 "HgN/A
10:20 PM37 °FPassing clouds.12 mph87%30.18 "HgN/A
9:50 PM36 °FPassing clouds.8 mph93%30.18 "HgN/A
9:20 PM36 °FPassing clouds.6 mph93%30.18 "HgN/A
8:50 PM34 °FPassing clouds.5 mph93%30.18 "HgN/A
8:20 PM36 °FPassing clouds.3 mph93%30.18 "HgN/A
7:50 PM36 °FLight rain. Partly cloudy.15 mph93%30.18 "HgN/A
7:20 PM39 °FClear.10 mph81%30.18 "Hg10 mi
6:50 PM39 °FClear.12 mph81%30.15 "Hg10 mi
6:20 PM39 °FPassing clouds.15 mph81%30.15 "HgN/A
5:50 PM39 °FPassing clouds.14 mph81%30.15 "HgN/A
5:20 PM39 °FScattered clouds.12 mph81%30.15 "HgN/A
4:50 PM41 °FSprinkles. Partly sunny.17 mph76%30.15 "HgN/A
4:20 PM41 °FSprinkles. Partly sunny.16 mph81%30.15 "HgN/A
3:50 PM39 °FPartly sunny.15 mph87%30.15 "HgN/A
3:20 PM39 °FSprinkles. Broken clouds.16 mph87%30.12 "HgN/A
2:50 PM43 °FSprinkles. Partly sunny.16 mph71%30.12 "HgN/A
2:20 PM43 °FSprinkles. Partly sunny.20 mph66%30.12 "HgN/A
1:50 PM43 °FSprinkles. Partly sunny.18 mph71%30.12 "HgN/A
1:20 PM41 °FSprinkles. Partly sunny.18 mph76%30.12 "HgN/A
12:50 PM39 °FSprinkles. Broken clouds.24 mph81%30.12 "HgN/A
12:20 PM43 °FSprinkles. Partly sunny.18 mph66%30.12 "HgN/A
Weather by CustomWeather, © 2015

See weather overviewHow to use our weather pages